| time (UTC) | temp F | wind direction | speed MPH | gust MPH | rain 1hr in | rain 24hr in | rain mn in | humidity % | barometer mb |
| 20260507043636 | 59 | 0.0 | 0.0 | 0.00 | 0.00 | 0.00 | 85 | 1008.5 | |
| 20260507042629 | 59 | 0.0 | 0.0 | 0.00 | 0.00 | 0.00 | 86 | 1008.6 | |
| 20260507041617 | 58 | 135 | 4.0 | 5.0 | 0.00 | 0.00 | 0.00 | 86 | 1008.8 |
| 20260507040606 | 58 | 0 | 1.0 | 2.0 | 0.00 | 0.00 | 0.00 | 85 | 1008.3 |
| 20260507035656 | 58 | 0.0 | 0.0 | 0.00 | 0.00 | 0.00 | 84 | 1008.3 | |
| 20260507034644 | 57 | 315 | 2.0 | 2.0 | 0.00 | 0.00 | 0.00 | 84 | 1008.3 |
| 20260507033633 | 57 | 180 | 1.0 | 2.0 | 0.00 | 0.00 | 0.00 | 81 | 1008.1 |
| 20260507032620 | 59 | 135 | 4.0 | 4.0 | 0.00 | 0.00 | 0.00 | 80 | 1008.2 |
| 20260507031610 | 60 | 135 | 2.0 | 3.0 | 0.00 | 0.00 | 0.00 | 80 | 1008.1 |
| 20260507030606 | 60 | 135 | 4.0 | 5.0 | 0.00 | 0.00 | 0.00 | 81 | 1008.0 |
| 20260507025658 | 60 | 135 | 4.0 | 4.0 | 0.00 | 0.00 | 0.00 | 82 | 1008.0 |
| 20260507024647 | 60 | 135 | 6.0 | 7.0 | 0.00 | 0.00 | 0.00 | 87 | 1008.1 |
| 20260507023635 | 58 | 0.0 | 2.0 | 0.00 | 0.00 | 0.00 | 86 | 1007.8 | |
| 20260507022628 | 59 | 45 | 1.0 | 2.0 | 0.00 | 0.00 | 0.00 | 85 | 1008.0 |
| 20260507021618 | 60 | 0.0 | 0.0 | 0.00 | 0.00 | 0.00 | 85 | 1008.0 | |
| 20260507020605 | 60 | 180 | 4.0 | 5.0 | 0.00 | 0.00 | 0.00 | 86 | 1007.6 |
| 20260507005236 | 61 | 135 | 6.0 | 7.0 | 0.00 | 0.00 | 0.00 | 85 | 1008.1 |
| 20260507004203 | 61 | 135 | 6.0 | 7.0 | 0.00 | 0.00 | 0.00 | 85 | 1008.1 |
| 20260507003130 | 61 | 90 | 2.0 | 4.0 | 0.00 | 0.00 | 0.00 | 85 | 1008.3 |
| 20260507002119 | 61 | 45 | 3.0 | 4.0 | 0.00 | 0.00 | 0.00 | 84 | 1008.4 |
| 20260507001204 | 62 | 135 | 4.0 | 5.0 | 0.00 | 0.00 | 0.00 | 84 | 1008.5 |
| 20260507000153 | 62 | 135 | 2.0 | 3.0 | 0.00 | 0.00 | 0.00 | 84 | 1008.5 |
| 20260506235245 | 62 | 135 | 3.0 | 4.0 | 0.00 | 0.00 | 0.00 | 83 | 1008.5 |
| 20260506234233 | 62 | 180 | 4.0 | 6.0 | 0.00 | 0.00 | 0.00 | 83 | 1008.3 |
| 20260506233222 | 62 | 180 | 8.0 | 9.0 | 0.00 | 0.00 | 0.00 | 82 | 1008.6 |
| 20260506232210 | 63 | 180 | 9.0 | 11.0 | 0.00 | 0.00 | 0.00 | 82 | 1008.6 |
| 20260506231204 | 63 | 225 | 8.0 | 11.0 | 0.00 | 0.00 | 0.00 | 83 | 1008.8 |
| 20260506230153 | 63 | 180 | 9.0 | 11.0 | 0.00 | 0.00 | 0.00 | 82 | 1008.9 |
| 20260506225246 | 64 | 180 | 13.0 | 17.0 | 0.00 | 0.00 | 0.00 | 76 | 1008.7 |
| 20260506224233 | 64 | 180 | 9.0 | 10.0 | 0.00 | 0.00 | 0.00 | 77 | 1008.5 |
| 20260506223222 | 63 | 180 | 6.0 | 8.0 | 0.00 | 0.00 | 0.00 | 81 | 1008.1 |
| 20260506222211 | 62 | 180 | 6.0 | 7.0 | 0.00 | 0.00 | 0.00 | 82 | 1007.8 |
| 20260506221206 | 63 | 135 | 3.0 | 4.0 | 0.00 | 0.00 | 0.00 | 81 | 1008.0 |
| 20260506220153 | 63 | 180 | 3.0 | 4.0 | 0.00 | 0.00 | 0.00 | 80 | 1008.0 |
| 20260506215253 | 63 | 135 | 3.0 | 4.0 | 0.00 | 0.00 | 0.00 | 81 | 1007.9 |
| 20260506214241 | 63 | 135 | 4.0 | 4.0 | 0.00 | 0.00 | 0.00 | 81 | 1008.0 |
| 20260506213229 | 64 | 135 | 4.0 | 4.0 | 0.00 | 0.00 | 0.00 | 76 | 1007.8 |
| 20260506212210 | 64 | 135 | 5.0 | 5.0 | 0.00 | 0.00 | 0.00 | 74 | 1007.8 |
| 20260506211205 | 65 | 135 | 1.0 | 2.0 | 0.00 | 0.00 | 0.00 | 73 | 1007.9 |
| 20260506210153 | 65 | 225 | 3.0 | 4.0 | 0.00 | 0.00 | 0.00 | 73 | 1007.8 |
| 20260506205252 | 65 | 225 | 6.0 | 8.0 | 0.00 | 0.00 | 0.00 | 74 | 1007.9 |
| 20260506204240 | 64 | 180 | 6.0 | 8.0 | 0.00 | 0.00 | 0.00 | 76 | 1007.9 |
| 20260506203221 | 65 | 225 | 11.0 | 12.0 | 0.00 | 0.00 | 0.00 | 73 | 1007.9 |
| 20260506202208 | 67 | 225 | 15.0 | 17.0 | 0.00 | 0.00 | 0.00 | 66 | 1008.3 |
| 20260506201204 | 68 | 270 | 20.0 | 21.0 | 0.00 | 0.00 | 0.00 | 61 | 1008.0 |
| 20260506200152 | 70 | 225 | 20.0 | 23.0 | 0.00 | 0.00 | 0.00 | 57 | 1007.9 |
| 20260506195245 | 68 | 180 | 6.0 | 7.0 | 0.00 | 0.00 | 0.00 | 58 | 1007.5 |
| 20260506194233 | 69 | 135 | 3.0 | 4.0 | 0.00 | 0.00 | 0.00 | 54 | 1007.4 |
| 20260506193221 | 69 | 113 | 2.0 | 2.0 | 0.00 | 0.00 | 0.00 | 53 | 1007.3 |
| 20260506192211 | 69 | 0.0 | 0.0 | 0.00 | 0.00 | 0.00 | 54 | 1007.0 | |
| 20260506191204 | 69 | 0.0 | 0.0 | 0.00 | 0.00 | 0.00 | 54 | 1007.1 | |
| 20260506190212 | 69 | 225 | 1.0 | 2.0 | 0.00 | 0.00 | 0.00 | 53 | 1007.2 |
| 20260506185252 | 69 | 225 | 3.0 | 4.0 | 0.00 | 0.00 | 0.00 | 53 | 1007.1 |
| 20260506184242 | 69 | 225 | 4.0 | 5.0 | 0.00 | 0.00 | 0.00 | 52 | 1006.9 |
| 20260506183229 | 70 | 180 | 1.0 | 2.0 | 0.00 | 0.00 | 0.00 | 52 | 1007.0 |
| 20260506182209 | 70 | 0.0 | 0.0 | 0.00 | 0.00 | 0.00 | 51 | 1006.7 | |
| 20260506181204 | 71 | 225 | 4.0 | 5.0 | 0.00 | 0.00 | 0.00 | 50 | 1006.5 |
| 20260506180212 | 73 | 225 | 7.0 | 8.0 | 0.00 | 0.00 | 0.00 | 45 | 1006.1 |
| 20260506175141 | 73 | 180 | 7.0 | 8.0 | 0.00 | 0.00 | 0.00 | 44 | 1006.3 |
| 20260506174130 | 73 | 270 | 8.0 | 10.0 | 0.00 | 0.00 | 0.00 | 43 | 1006.0 |
| 20260506173118 | 74 | 225 | 8.0 | 8.0 | 0.00 | 0.00 | 0.00 | 43 | 1006.1 |
| 20260506172108 | 74 | 225 | 11.0 | 12.0 | 0.00 | 0.00 | 0.00 | 42 | 1006.0 |
| 20260506171102 | 75 | 225 | 8.0 | 10.0 | 0.00 | 0.00 | 0.00 | 42 | 1006.3 |
| 20260506170152 | 75 | 225 | 9.0 | 10.0 | 0.00 | 0.00 | 0.00 | 41 | 1006.4 |
| 20260506165658 | 75 | 225 | 13.0 | 14.0 | 0.00 | 0.00 | 0.00 | 41 | 1006.0 |
| 20260506164705 | 75 | 270 | 9.0 | 11.0 | 0.00 | 0.00 | 0.00 | 41 | 1006.1 |
| 20260506163631 | 75 | 225 | 14.0 | 16.0 | 0.00 | 0.00 | 0.00 | 40 | 1006.0 |
| 20260506162646 | 76 | 180 | 17.0 | 18.0 | 0.00 | 0.00 | 0.00 | 40 | 1006.3 |
| 20260506161610 | 76 | 225 | 10.0 | 13.0 | 0.00 | 0.00 | 0.00 | 40 | 1006.3 |
| 20260506160604 | 77 | 270 | 7.0 | 8.0 | 0.00 | 0.00 | 0.00 | 40 | 1006.3 |
| 20260506155306 | 77 | 225 | 12.0 | 14.0 | 0.00 | 0.00 | 0.00 | 38 | 1006.4 |
| 20260506154230 | 76 | 225 | 12.0 | 14.0 | 0.00 | 0.00 | 0.00 | 38 | 1006.6 |
| 20260506153219 | 77 | 180 | 10.0 | 13.0 | 0.00 | 0.00 | 0.00 | 38 | 1006.4 |
| 20260506152228 | 77 | 225 | 9.0 | 12.0 | 0.00 | 0.00 | 0.00 | 38 | 1006.4 |
| 20260506151204 | 78 | 225 | 11.0 | 14.0 | 0.00 | 0.00 | 0.00 | 35 | 1006.5 |
| 20260506150212 | 79 | 203 | 13.0 | 16.0 | 0.00 | 0.00 | 0.00 | 34 | 1006.4 |
| 20260506145252 | 78 | 225 | 12.0 | 15.0 | 0.00 | 0.00 | 0.00 | 34 | 1006.7 |
| 20260506144240 | 79 | 270 | 11.0 | 12.0 | 0.00 | 0.00 | 0.00 | 34 | 1006.7 |
| 20260506143229 | 77 | 203 | 13.0 | 15.0 | 0.00 | 0.00 | 0.00 | 35 | 1006.9 |
| 20260506142210 | 78 | 180 | 14.0 | 15.0 | 0.00 | 0.00 | 0.00 | 33 | 1007.0 |
| 20260506141206 | 78 | 225 | 12.0 | 15.0 | 0.00 | 0.00 | 0.00 | 32 | 1007.0 |
| 20260506140153 | 79 | 225 | 14.0 | 16.0 | 0.00 | 0.00 | 0.00 | 32 | 1006.9 |
| 20260506135245 | 79 | 225 | 15.0 | 17.0 | 0.00 | 0.00 | 0.00 | 32 | 1007.0 |
| 20260506134313 | 80 | 248 | 13.0 | 15.0 | 0.00 | 0.00 | 0.00 | 32 | 1007.0 |
| 20260506133224 | 78 | 225 | 16.0 | 20.0 | 0.00 | 0.00 | 0.00 | 32 | 1007.2 |
| 20260506132212 | 78 | 180 | 15.0 | 16.0 | 0.00 | 0.00 | 0.00 | 32 | 1007.2 |
| 20260506131206 | 78 | 180 | 15.0 | 17.0 | 0.00 | 0.00 | 0.00 | 32 | 1007.2 |
| 20260506130153 | 78 | 135 | 11.0 | 13.0 | 0.00 | 0.00 | 0.00 | 33 | 1007.3 |
| 20260506125306 | 78 | 225 | 18.0 | 23.0 | 0.00 | 0.00 | 0.00 | 32 | 1007.4 |
| 20260506124253 | 77 | 225 | 19.0 | 23.0 | 0.00 | 0.00 | 0.00 | 32 | 1007.4 |
| 20260506123219 | 77 | 180 | 15.0 | 17.0 | 0.00 | 0.00 | 0.00 | 34 | 1007.7 |
| 20260506122249 | 77 | 180 | 17.0 | 20.0 | 0.00 | 0.00 | 0.00 | 33 | 1007.6 |
| 20260506121205 | 77 | 225 | 18.0 | 22.0 | 0.00 | 0.00 | 0.00 | 35 | 1007.6 |
| 20260506120152 | 76 | 180 | 15.0 | 17.0 | 0.00 | 0.00 | 0.00 | 33 | 1007.7 |
| 20260506115657 | 78 | 180 | 17.0 | 19.0 | 0.00 | 0.00 | 0.00 | 34 | 1007.8 |
| 20260506114645 | 76 | 225 | 15.0 | 17.0 | 0.00 | 0.00 | 0.00 | 37 | 1007.6 |
| 20260506113653 | 76 | 180 | 12.0 | 13.0 | 0.00 | 0.00 | 0.00 | 40 | 1007.8 |
| 20260506112642 | 76 | 180 | 16.0 | 20.0 | 0.00 | 0.00 | 0.00 | 40 | 1007.8 |
| 20260506111609 | 76 | 180 | 18.0 | 21.0 | 0.00 | 0.00 | 0.00 | 41 | 1008.3 |
| 20260506110604 | 74 | 203 | 12.0 | 15.0 | 0.00 | 0.00 | 0.00 | 42 | 1007.9 |
| 20260506105242 | 74 | 180 | 16.0 | 18.0 | 0.00 | 0.00 | 0.00 | 43 | 1008.3 |
| 20260506104230 | 74 | 180 | 19.0 | 22.0 | 0.00 | 0.00 | 0.00 | 45 | 1008.4 |
| 20260506103220 | 74 | 180 | 14.0 | 17.0 | 0.00 | 0.00 | 0.00 | 45 | 1008.5 |
| 20260506102208 | 72 | 225 | 12.0 | 14.0 | 0.00 | 0.00 | 0.00 | 50 | 1008.2 |
| 20260506101204 | 72 | 135 | 14.0 | 15.0 | 0.00 | 0.00 | 0.00 | 50 | 1008.5 |
| 20260506100152 | 71 | 180 | 11.0 | 13.0 | 0.00 | 0.00 | 0.00 | 50 | 1008.5 |
| 20260506095654 | 71 | 180 | 13.0 | 15.0 | 0.00 | 0.00 | 0.00 | 50 | 1008.5 |
| 20260506094642 | 71 | 180 | 11.0 | 12.0 | 0.00 | 0.00 | 0.00 | 51 | 1008.4 |
| 20260506093631 | 71 | 135 | 16.0 | 19.0 | 0.00 | 0.00 | 0.00 | 51 | 1008.7 |
| 20260506092622 | 71 | 180 | 14.0 | 15.0 | 0.00 | 0.00 | 0.00 | 51 | 1008.4 |
| 20260506091608 | 71 | 180 | 7.0 | 8.0 | 0.00 | 0.00 | 0.00 | 51 | 1008.5 |
| 20260506090604 | 71 | 225 | 8.0 | 11.0 | 0.00 | 0.00 | 0.00 | 52 | 1008.6 |
| 20260506085700 | 70 | 180 | 8.0 | 10.0 | 0.00 | 0.00 | 0.00 | 52 | 1008.9 |
| 20260506084642 | 69 | 225 | 13.0 | 15.0 | 0.00 | 0.00 | 0.00 | 52 | 1008.5 |
| 20260506083636 | 68 | 180 | 9.0 | 11.0 | 0.00 | 0.00 | 0.00 | 53 | 1008.6 |
| 20260506082655 | 68 | 180 | 10.0 | 11.0 | 0.00 | 0.00 | 0.00 | 56 | 1008.7 |
| 20260506081605 | 67 | 135 | 11.0 | 12.0 | 0.00 | 0.00 | 0.00 | 56 | 1008.6 |
| 20260506080700 | 67 | 180 | 9.0 | 11.0 | 0.00 | 0.00 | 0.00 | 55 | 1008.6 |
| 20260506080152 | 67 | 225 | 8.0 | 10.0 | 0.00 | 0.00 | 0.00 | 55 | 1008.7 |
| 20260506072620 | 65 | 225 | 7.0 | 8.0 | 0.00 | 0.00 | 0.00 | 59 | 1008.8 |
| 20260506071630 | 65 | 180 | 7.0 | 8.0 | 0.00 | 0.00 | 0.00 | 59 | 1008.8 |
| 20260506070605 | 65 | 203 | 8.0 | 8.0 | 0.00 | 0.00 | 0.00 | 60 | 1009.0 |
| 20260506062209 | 63 | 180 | 11.0 | 11.0 | 0.00 | 0.00 | 0.00 | 66 | 1008.8 |
| 20260506061204 | 63 | 180 | 9.0 | 10.0 | 0.00 | 0.00 | 0.00 | 66 | 1008.6 |
| 20260506060152 | 62 | 158 | 9.0 | 11.0 | 0.00 | 0.00 | 0.00 | 67 | 1008.9 |
| 20260506051203 | 59 | 180 | 7.0 | 8.0 | 0.00 | 0.00 | 0.00 | 72 | 1008.6 |
| 20260506050152 | 59 | 135 | 6.0 | 8.0 | 0.00 | 0.00 | 0.00 | 73 | 1008.4 |
| 20260506044231 | 57 | 135 | 6.0 | 7.0 | 0.00 | 0.00 | 0.00 | 74 | 1008.4 |